Weather History for Louisville Bowman, KY

Change the Weather History Date:

Saturday, November 2, 2013

  Actual Average Record
Temperature  
Mean Temperature 50 °F 53 °F  
Max Temperature 58 °F 63 °F 82 °F (1987)
Min Temperature 42 °F 43 °F 22 °F (1951)
Degree Days  
Heating Degree Days 15 12  
Month to date heating degree days 21 24  
Since 1 July heating degree days 294 300  
Cooling Degree Days 0 0  
Month to date cooling degree days 0 0  
Year to date cooling degree days 1446 1442  
Moisture  
Dew Point 40 °F    
Average Humidity 68    
Maximum Humidity 89    
Minimum Humidity 47    
Precipitation  
Precipitation 0.01 in 0.14 in 2.23 in (1955)
Month to date precipitation 0.01 0.28  
Year to date precipitation 50.41 38.20  
Sea Level Pressure  
Sea Level Pressure 29.94 in    
Wind  
Wind Speed 7 mph (WNW)    
Max Wind Speed 20 mph    
Max Gust Speed 24 mph    
Visibility 10 miles    
Events Rain    
T = Trace of Precipitation, MM = Missing Value Source: NWS Daily Summary

Daily Weather History Graph

Daily Weather History Graph

Search for Another Location

Airport:

Trip Planner

Search our weather history database for the weather conditions in past years. The results will help you decide how hot, cold, wet, or windy it might be!

Date:

Astronomy

Nov. 02, 2013 Rise Set
Actual Time 8:10 AM EDT 6:41 PM EDT
Civil Twilight 7:42 AM EDT 7:09 PM EDT
Nautical Twilight 7:11 AM EDT 7:40 PM EDT
Astronomical Twilight 6:40 AM EDT 8:11 PM EDT
Moon 7:07 AM EDT (11/2) 6:12 PM EDT (11/2)
Length of Visible Light 11h 26m
Length of Day
10h 31m
Waning Crescent, 1% of the Moon is Illuminated
Nov 2
Waning Crescent
Nov 3
New
Nov 10
First Quarter
Nov 17
Full
Nov 25
Last Quarter

Hourly Weather History & Observations

Time (EDT) Temp. Windchill Dew Point Humidity Pressure Visibility Wind Dir Wind Speed Gust Speed Precip Events Conditions
12:53 AM 52.0 °F - 43.0 °F 71% 29.81 in 10.0 mi WNW 6.9 mph - N/A   Scattered Clouds
1:53 AM 50.0 °F - 42.1 °F 74% 29.82 in 10.0 mi West 6.9 mph - N/A   Clear
2:53 AM 48.9 °F - 39.9 °F 71% 29.82 in 10.0 mi WNW 5.8 mph - N/A   Clear
3:53 AM 45.0 °F - 39.9 °F 82% 29.82 in 10.0 mi Calm Calm - N/A   Clear
4:53 AM 45.0 °F - 39.9 °F 82% 29.83 in 10.0 mi Calm Calm - N/A   Clear
5:53 AM 43.0 °F - 39.0 °F 86% 29.84 in 10.0 mi Calm Calm - N/A   Clear
6:53 AM 43.0 °F - 39.9 °F 89% 29.86 in 10.0 mi Calm Calm - N/A   Scattered Clouds
7:53 AM 42.1 °F - 39.0 °F 89% 29.88 in 10.0 mi Calm Calm - N/A   Clear
8:53 AM 43.0 °F - 39.9 °F 89% 29.90 in 10.0 mi Calm Calm - N/A   Clear
9:53 AM 48.0 °F - 42.1 °F 80% 29.91 in 10.0 mi SW 3.5 mph - N/A   Clear
10:53 AM 52.0 °F - 43.0 °F 71% 29.92 in 10.0 mi South 3.5 mph - N/A   Clear
11:53 AM 55.0 °F - 41.0 °F 59% 29.94 in 10.0 mi West 9.2 mph - N/A   Clear
12:53 PM 55.9 °F - 41.0 °F 57% 29.94 in 10.0 mi WSW 9.2 mph - N/A   Scattered Clouds
1:53 PM 57.0 °F - 37.9 °F 49% 29.93 in 10.0 mi WNW 10.4 mph 18.4 mph N/A   Mostly Cloudy
2:53 PM 55.0 °F - 41.0 °F 59% 29.93 in 10.0 mi West 11.5 mph - 0.00 in Rain Light Rain
3:53 PM 55.0 °F - 45.0 °F 69% 29.94 in 10.0 mi West 6.9 mph - 0.01 in   Scattered Clouds
4:53 PM 57.0 °F - 37.0 °F 47% 29.95 in 10.0 mi NNW 11.5 mph 20.7 mph N/A   Partly Cloudy
5:53 PM 55.0 °F - 36.0 °F 49% 29.98 in 10.0 mi NW 13.8 mph - N/A   Partly Cloudy
6:53 PM 54.0 °F - 36.0 °F 51% 30.01 in 10.0 mi NW 12.7 mph - N/A   Overcast
7:53 PM 52.0 °F - 39.0 °F 61% 30.05 in 10.0 mi WNW 10.4 mph - 0.00 in   Overcast
8:53 PM 50.0 °F - 39.9 °F 68% 30.08 in 10.0 mi WNW 9.2 mph - N/A   Scattered Clouds
9:53 PM 48.9 °F - 39.9 °F 71% 30.11 in 10.0 mi WNW 12.7 mph 18.4 mph N/A   Overcast
10:53 PM 48.0 °F - 34.0 °F 58% 30.14 in 10.0 mi NW 9.2 mph - N/A   Mostly Cloudy
11:53 PM 46.0 °F 43.9 °F 34.0 °F 63% 30.14 in 10.0 mi NW 4.6 mph - N/A   Clear